Data supplied by UK-AIR on 5/4/2008
All Data GMT hour ending 
Status: R =Ratified P=Provisional,P*=As supplied
,,Camden Kerbside,,,,,,,,,,,,,,,,,,,,,,,
Date,time,"PM10 particulate matter (Hourly measured)",status,unit,"Nitric oxide",status,unit,"Nitrogen dioxide",status,unit,"Nitrogen oxides as nitrogen dioxide",status,unit
 
01-01-2005,01:00,47,R,ugm-3 (GRAV EQ),11,R,ugm-3,67,R,ugm-3,84,R,ugm-3
01-01-2005,02:00,34,R,ugm-3 (GRAV EQ),10,R,ugm-3,65,R,ugm-3,80,R,ugm-3
01-01-2005,03:00,18,R,ugm-3 (GRAV EQ),3,R,ugm-3,46,R,ugm-3,50,R,ugm-3
01-01-2005,04:00,16,R,ugm-3 (GRAV EQ),5,R,ugm-3,55,R,ugm-3,63,R,ugm-3
01-01-2005,05:00,17,R,ugm-3 (GRAV EQ),9,R,ugm-3,59,R,ugm-3,73,R,ugm-3
01-01-2005,06:00,17,R,ugm-3 (GRAV EQ),8,R,ugm-3,59,R,ugm-3,71,R,ugm-3
01-01-2005,07:00,12,R,ugm-3 (GRAV EQ),14,R,ugm-3,67,R,ugm-3,88,R,ugm-3
01-01-2005,08:00,13,R,ugm-3 (GRAV EQ),15,R,ugm-3,67,R,ugm-3,90,R,ugm-3
01-01-2005,09:00,13,R,ugm-3 (GRAV EQ),13,R,ugm-3,57,R,ugm-3,76,R,ugm-3
01-01-2005,10:00,12,R,ugm-3 (GRAV EQ),15,R,ugm-3,50,R,ugm-3,73,R,ugm-3
01-01-2005,11:00,13,R,ugm-3 (GRAV EQ),10,R,ugm-3,44,R,ugm-3,59,R,ugm-3
01-01-2005,12:00,12,R,ugm-3 (GRAV EQ),16,R,ugm-3,46,R,ugm-3,71,R,ugm-3
01-01-2005,13:00,12,R,ugm-3 (GRAV EQ),20,R,ugm-3,57,R,ugm-3,88,R,ugm-3
01-01-2005,14:00,12,R,ugm-3 (GRAV EQ),13,R,ugm-3,44,R,ugm-3,63,R,ugm-3
01-01-2005,15:00,12,R,ugm-3 (GRAV EQ),14,R,ugm-3,46,R,ugm-3,67,R,ugm-3
01-01-2005,16:00,18,R,ugm-3 (GRAV EQ),13,R,ugm-3,40,R,ugm-3,59,R,ugm-3
01-01-2005,17:00,14,R,ugm-3 (GRAV EQ),11,R,ugm-3,44,R,ugm-3,61,R,ugm-3
01-01-2005,18:00,12,R,ugm-3 (GRAV EQ),10,R,ugm-3,42,R,ugm-3,57,R,ugm-3
01-01-2005,19:00,,,,1,R,ugm-3,17,R,ugm-3,19,R,ugm-3
01-01-2005,20:00,18,R,ugm-3 (GRAV EQ),1,R,ugm-3,21,R,ugm-3,23,R,ugm-3
01-01-2005,21:00,21,R,ugm-3 (GRAV EQ),1,R,ugm-3,19,R,ugm-3,21,R,ugm-3
01-01-2005,22:00,16,R,ugm-3 (GRAV EQ),1,R,ugm-3,23,R,ugm-3,25,R,ugm-3
01-01-2005,23:00,13,R,ugm-3 (GRAV EQ),1,R,ugm-3,21,R,ugm-3,23,R,ugm-3
01-01-2005,24:00,12,R,ugm-3 (GRAV EQ),0,R,ugm-3,15,R,ugm-3,15,R,ugm-3
02-01-2005,01:00,13,R,ugm-3 (GRAV EQ),0,R,ugm-3,8,R,ugm-3,8,R,ugm-3
02-01-2005,02:00,12,R,ugm-3 (GRAV EQ),0,R,ugm-3,6,R,ugm-3,6,R,ugm-3
02-01-2005,03:00,14,R,ugm-3 (GRAV EQ),0,R,ugm-3,8,R,ugm-3,8,R,ugm-3
02-01-2005,04:00,13,R,ugm-3 (GRAV EQ),0,R,ugm-3,6,R,ugm-3,6,R,ugm-3
02-01-2005,05:00,14,R,ugm-3 (GRAV EQ),0,R,ugm-3,8,R,ugm-3,8,R,ugm-3
02-01-2005,06:00,18,R,ugm-3 (GRAV EQ),0,R,ugm-3,17,R,ugm-3,17,R,ugm-3
02-01-2005,07:00,21,R,ugm-3 (GRAV EQ),0,R,ugm-3,25,R,ugm-3,25,R,ugm-3
02-01-2005,08:00,22,R,ugm-3 (GRAV EQ),1,R,ugm-3,32,R,ugm-3,34,R,ugm-3
02-01-2005,09:00,23,R,ugm-3 (GRAV EQ),4,R,ugm-3,42,R,ugm-3,48,R,ugm-3
02-01-2005,10:00,22,R,ugm-3 (GRAV EQ),5,R,ugm-3,32,R,ugm-3,40,R,ugm-3
02-01-2005,11:00,22,R,ugm-3 (GRAV EQ),6,R,ugm-3,27,R,ugm-3,36,R,ugm-3
02-01-2005,12:00,23,R,ugm-3 (GRAV EQ),10,R,ugm-3,34,R,ugm-3,50,R,ugm-3
02-01-2005,13:00,20,R,ugm-3 (GRAV EQ),8,R,ugm-3,29,R,ugm-3,40,R,ugm-3
02-01-2005,14:00,21,R,ugm-3 (GRAV EQ),8,R,ugm-3,29,R,ugm-3,40,R,ugm-3
02-01-2005,15:00,18,R,ugm-3 (GRAV EQ),6,R,ugm-3,31,R,ugm-3,40,R,ugm-3
02-01-2005,16:00,18,R,ugm-3 (GRAV EQ),8,R,ugm-3,36,R,ugm-3,48,R,ugm-3
02-01-2005,17:00,18,R,ugm-3 (GRAV EQ),10,R,ugm-3,52,R,ugm-3,67,R,ugm-3
02-01-2005,18:00,25,R,ugm-3 (GRAV EQ),19,R,ugm-3,67,R,ugm-3,96,R,ugm-3
02-01-2005,19:00,26,R,ugm-3 (GRAV EQ),18,R,ugm-3,78,R,ugm-3,105,R,ugm-3
02-01-2005,20:00,26,R,ugm-3 (GRAV EQ),13,R,ugm-3,67,R,ugm-3,86,R,ugm-3
02-01-2005,21:00,25,R,ugm-3 (GRAV EQ),9,R,ugm-3,59,R,ugm-3,73,R,ugm-3
02-01-2005,22:00,26,R,ugm-3 (GRAV EQ),9,R,ugm-3,63,R,ugm-3,76,R,ugm-3
02-01-2005,23:00,23,R,ugm-3 (GRAV EQ),6,R,ugm-3,48,R,ugm-3,57,R,ugm-3
02-01-2005,24:00,20,R,ugm-3 (GRAV EQ),5,R,ugm-3,44,R,ugm-3,52,R,ugm-3
03-01-2005,01:00,20,R,ugm-3 (GRAV EQ),4,R,ugm-3,50,R,ugm-3,55,R,ugm-3
03-01-2005,02:00,18,R,ugm-3 (GRAV EQ),1,R,ugm-3,44,R,ugm-3,46,R,ugm-3
03-01-2005,03:00,21,R,ugm-3 (GRAV EQ),0,R,ugm-3,23,R,ugm-3,23,R,ugm-3
03-01-2005,04:00,22,R,ugm-3 (GRAV EQ),0,R,ugm-3,17,R,ugm-3,17,R,ugm-3
03-01-2005,05:00,22,R,ugm-3 (GRAV EQ),0,R,ugm-3,27,R,ugm-3,27,R,ugm-3
03-01-2005,06:00,20,R,ugm-3 (GRAV EQ),1,R,ugm-3,34,R,ugm-3,36,R,ugm-3
03-01-2005,07:00,21,R,ugm-3 (GRAV EQ),4,R,ugm-3,48,R,ugm-3,53,R,ugm-3
03-01-2005,08:00,21,R,ugm-3 (GRAV EQ),14,R,ugm-3,69,R,ugm-3,90,R,ugm-3
03-01-2005,09:00,25,R,ugm-3 (GRAV EQ),30,R,ugm-3,73,R,ugm-3,118,R,ugm-3
03-01-2005,10:00,25,R,ugm-3 (GRAV EQ),24,R,ugm-3,63,R,ugm-3,99,R,ugm-3
03-01-2005,11:00,23,R,ugm-3 (GRAV EQ),14,R,ugm-3,52,R,ugm-3,73,R,ugm-3
03-01-2005,12:00,22,R,ugm-3 (GRAV EQ),26,R,ugm-3,61,R,ugm-3,101,R,ugm-3
03-01-2005,13:00,22,R,ugm-3 (GRAV EQ),25,R,ugm-3,57,R,ugm-3,96,R,ugm-3
03-01-2005,14:00,23,R,ugm-3 (GRAV EQ),18,R,ugm-3,55,R,ugm-3,82,R,ugm-3
03-01-2005,15:00,20,R,ugm-3 (GRAV EQ),15,R,ugm-3,50,R,ugm-3,73,R,ugm-3
03-01-2005,16:00,14,R,ugm-3 (GRAV EQ),11,R,ugm-3,50,R,ugm-3,67,R,ugm-3
03-01-2005,17:00,13,R,ugm-3 (GRAV EQ),11,R,ugm-3,50,R,ugm-3,67,R,ugm-3
03-01-2005,18:00,17,R,ugm-3 (GRAV EQ),18,R,ugm-3,65,R,ugm-3,92,R,ugm-3
03-01-2005,19:00,14,R,ugm-3 (GRAV EQ),11,R,ugm-3,52,R,ugm-3,69,R,ugm-3
03-01-2005,20:00,13,R,ugm-3 (GRAV EQ),8,R,ugm-3,44,R,ugm-3,55,R,ugm-3
03-01-2005,21:00,13,R,ugm-3 (GRAV EQ),4,R,ugm-3,42,R,ugm-3,48,R,ugm-3
03-01-2005,22:00,14,R,ugm-3 (GRAV EQ),4,R,ugm-3,32,R,ugm-3,38,R,ugm-3
03-01-2005,23:00,12,R,ugm-3 (GRAV EQ),1,R,ugm-3,27,R,ugm-3,29,R,ugm-3
03-01-2005,24:00,13,R,ugm-3 (GRAV EQ),3,R,ugm-3,21,R,ugm-3,25,R,ugm-3
04-01-2005,01:00,13,R,ugm-3 (GRAV EQ),0,R,ugm-3,11,R,ugm-3,11,R,ugm-3
04-01-2005,02:00,13,R,ugm-3 (GRAV EQ),0,R,ugm-3,8,R,ugm-3,8,R,ugm-3
04-01-2005,03:00,16,R,ugm-3 (GRAV EQ),0,R,ugm-3,8,R,ugm-3,8,R,ugm-3
04-01-2005,04:00,18,R,ugm-3 (GRAV EQ),0,R,ugm-3,8,R,ugm-3,8,R,ugm-3
04-01-2005,05:00,21,R,ugm-3 (GRAV EQ),0,R,ugm-3,10,R,ugm-3,10,R,ugm-3
04-01-2005,06:00,20,R,ugm-3 (GRAV EQ),3,R,ugm-3,17,R,ugm-3,21,R,ugm-3
04-01-2005,07:00,22,R,ugm-3 (GRAV EQ),8,R,ugm-3,32,R,ugm-3,44,R,ugm-3
04-01-2005,08:00,26,R,ugm-3 (GRAV EQ),11,R,ugm-3,46,R,ugm-3,63,R,ugm-3
04-01-2005,09:00,29,R,ugm-3 (GRAV EQ),18,R,ugm-3,53,R,ugm-3,80,R,ugm-3
04-01-2005,10:00,29,R,ugm-3 (GRAV EQ),28,R,ugm-3,61,R,ugm-3,103,R,ugm-3
04-01-2005,11:00,31,R,ugm-3 (GRAV EQ),30,R,ugm-3,61,R,ugm-3,107,R,ugm-3
04-01-2005,12:00,34,R,ugm-3 (GRAV EQ),20,R,ugm-3,50,R,ugm-3,80,R,ugm-3
04-01-2005,13:00,35,R,ugm-3 (GRAV EQ),25,R,ugm-3,57,R,ugm-3,96,R,ugm-3
04-01-2005,14:00,38,R,ugm-3 (GRAV EQ),31,R,ugm-3,65,R,ugm-3,113,R,ugm-3
04-01-2005,15:00,39,R,ugm-3 (GRAV EQ),30,R,ugm-3,67,R,ugm-3,113,R,ugm-3
04-01-2005,16:00,30,R,ugm-3 (GRAV EQ),29,R,ugm-3,69,R,ugm-3,113,R,ugm-3
04-01-2005,17:00,22,R,ugm-3 (GRAV EQ),29,R,ugm-3,69,R,ugm-3,113,R,ugm-3
04-01-2005,18:00,21,R,ugm-3 (GRAV EQ),14,R,ugm-3,61,R,ugm-3,82,R,ugm-3
04-01-2005,19:00,12,R,ugm-3 (GRAV EQ),25,R,ugm-3,69,R,ugm-3,107,R,ugm-3
04-01-2005,20:00,10,R,ugm-3 (GRAV EQ),16,R,ugm-3,69,R,ugm-3,94,R,ugm-3
04-01-2005,21:00,17,R,ugm-3 (GRAV EQ),25,R,ugm-3,82,R,ugm-3,120,R,ugm-3
04-01-2005,22:00,17,R,ugm-3 (GRAV EQ),16,R,ugm-3,76,R,ugm-3,101,R,ugm-3
04-01-2005,23:00,18,R,ugm-3 (GRAV EQ),24,R,ugm-3,76,R,ugm-3,113,R,ugm-3
04-01-2005,24:00,21,R,ugm-3 (GRAV EQ),43,R,ugm-3,80,R,ugm-3,145,R,ugm-3
05-01-2005,01:00,27,R,ugm-3 (GRAV EQ),48,R,ugm-3,74,R,ugm-3,147,R,ugm-3
05-01-2005,02:00,26,R,ugm-3 (GRAV EQ),49,R,ugm-3,74,R,ugm-3,149,R,ugm-3
05-01-2005,03:00,25,R,ugm-3 (GRAV EQ),10,R,ugm-3,65,R,ugm-3,80,R,ugm-3
05-01-2005,04:00,22,R,ugm-3 (GRAV EQ),5,R,ugm-3,50,R,ugm-3,57,R,ugm-3
05-01-2005,05:00,21,R,ugm-3 (GRAV EQ),11,R,ugm-3,59,R,ugm-3,76,R,ugm-3
05-01-2005,06:00,22,R,ugm-3 (GRAV EQ),39,R,ugm-3,71,R,ugm-3,130,R,ugm-3
05-01-2005,07:00,22,R,ugm-3 (GRAV EQ),68,R,ugm-3,82,R,ugm-3,185,R,ugm-3
05-01-2005,08:00,27,R,ugm-3 (GRAV EQ),134,R,ugm-3,107,R,ugm-3,311,R,ugm-3
05-01-2005,09:00,40,R,ugm-3 (GRAV EQ),213,R,ugm-3,139,R,ugm-3,464,R,ugm-3
05-01-2005,10:00,42,R,ugm-3 (GRAV EQ),145,R,ugm-3,132,R,ugm-3,353,R,ugm-3
05-01-2005,11:00,42,R,ugm-3 (GRAV EQ),126,R,ugm-3,111,R,ugm-3,304,R,ugm-3
05-01-2005,12:00,36,R,ugm-3 (GRAV EQ),,,,,,,,,
05-01-2005,13:00,,,,,,,,,,,,
05-01-2005,14:00,30,R,ugm-3 (GRAV EQ),65,R,ugm-3,90,R,ugm-3,189,R,ugm-3
05-01-2005,15:00,31,R,ugm-3 (GRAV EQ),56,R,ugm-3,84,R,ugm-3,170,R,ugm-3
05-01-2005,16:00,31,R,ugm-3 (GRAV EQ),44,R,ugm-3,82,R,ugm-3,149,R,ugm-3
05-01-2005,17:00,25,R,ugm-3 (GRAV EQ),43,R,ugm-3,84,R,ugm-3,149,R,ugm-3
05-01-2005,18:00,25,R,ugm-3 (GRAV EQ),40,R,ugm-3,82,R,ugm-3,143,R,ugm-3
05-01-2005,19:00,26,R,ugm-3 (GRAV EQ),33,R,ugm-3,74,R,ugm-3,124,R,ugm-3
05-01-2005,20:00,23,R,ugm-3 (GRAV EQ),13,R,ugm-3,52,R,ugm-3,71,R,ugm-3
05-01-2005,21:00,18,R,ugm-3 (GRAV EQ),5,R,ugm-3,48,R,ugm-3,55,R,ugm-3
05-01-2005,22:00,14,R,ugm-3 (GRAV EQ),4,R,ugm-3,40,R,ugm-3,46,R,ugm-3
05-01-2005,23:00,13,R,ugm-3 (GRAV EQ),4,R,ugm-3,40,R,ugm-3,46,R,ugm-3
05-01-2005,24:00,16,R,ugm-3 (GRAV EQ),11,R,ugm-3,55,R,ugm-3,73,R,ugm-3
06-01-2005,01:00,18,R,ugm-3 (GRAV EQ),1,R,ugm-3,42,R,ugm-3,44,R,ugm-3
06-01-2005,02:00,18,R,ugm-3 (GRAV EQ),0,R,ugm-3,23,R,ugm-3,23,R,ugm-3
06-01-2005,03:00,23,R,ugm-3 (GRAV EQ),0,R,ugm-3,23,R,ugm-3,23,R,ugm-3
06-01-2005,04:00,27,R,ugm-3 (GRAV EQ),3,R,ugm-3,38,R,ugm-3,42,R,ugm-3
06-01-2005,05:00,27,R,ugm-3 (GRAV EQ),6,R,ugm-3,57,R,ugm-3,67,R,ugm-3
06-01-2005,06:00,29,R,ugm-3 (GRAV EQ),16,R,ugm-3,67,R,ugm-3,92,R,ugm-3
06-01-2005,07:00,33,R,ugm-3 (GRAV EQ),49,R,ugm-3,74,R,ugm-3,149,R,ugm-3
06-01-2005,08:00,34,R,ugm-3 (GRAV EQ),84,R,ugm-3,90,R,ugm-3,218,R,ugm-3
06-01-2005,09:00,42,R,ugm-3 (GRAV EQ),98,R,ugm-3,92,R,ugm-3,241,R,ugm-3
06-01-2005,10:00,49,R,ugm-3 (GRAV EQ),118,R,ugm-3,94,R,ugm-3,273,R,ugm-3
06-01-2005,11:00,47,R,ugm-3 (GRAV EQ),81,R,ugm-3,86,R,ugm-3,210,R,ugm-3
06-01-2005,12:00,51,R,ugm-3 (GRAV EQ),60,R,ugm-3,74,R,ugm-3,166,R,ugm-3
06-01-2005,13:00,48,R,ugm-3 (GRAV EQ),36,R,ugm-3,65,R,ugm-3,120,R,ugm-3
06-01-2005,14:00,55,R,ugm-3 (GRAV EQ),49,R,ugm-3,71,R,ugm-3,145,R,ugm-3
06-01-2005,15:00,48,R,ugm-3 (GRAV EQ),45,R,ugm-3,74,R,ugm-3,143,R,ugm-3
06-01-2005,16:00,53,R,ugm-3 (GRAV EQ),54,R,ugm-3,78,R,ugm-3,160,R,ugm-3
06-01-2005,17:00,47,R,ugm-3 (GRAV EQ),41,R,ugm-3,76,R,ugm-3,139,R,ugm-3
06-01-2005,18:00,43,R,ugm-3 (GRAV EQ),43,R,ugm-3,71,R,ugm-3,136,R,ugm-3
06-01-2005,19:00,31,R,ugm-3 (GRAV EQ),34,R,ugm-3,67,R,ugm-3,118,R,ugm-3
06-01-2005,20:00,22,R,ugm-3 (GRAV EQ),25,R,ugm-3,57,R,ugm-3,96,R,ugm-3
06-01-2005,21:00,20,R,ugm-3 (GRAV EQ),13,R,ugm-3,46,R,ugm-3,65,R,ugm-3
06-01-2005,22:00,20,R,ugm-3 (GRAV EQ),5,R,ugm-3,32,R,ugm-3,40,R,ugm-3
06-01-2005,23:00,20,R,ugm-3 (GRAV EQ),6,R,ugm-3,34,R,ugm-3,44,R,ugm-3
06-01-2005,24:00,22,R,ugm-3 (GRAV EQ),5,R,ugm-3,29,R,ugm-3,36,R,ugm-3
07-01-2005,01:00,13,R,ugm-3 (GRAV EQ),3,R,ugm-3,21,R,ugm-3,25,R,ugm-3
07-01-2005,02:00,13,R,ugm-3 (GRAV EQ),0,R,ugm-3,15,R,ugm-3,15,R,ugm-3
07-01-2005,03:00,10,R,ugm-3 (GRAV EQ),0,R,ugm-3,10,R,ugm-3,10,R,ugm-3
07-01-2005,04:00,10,R,ugm-3 (GRAV EQ),0,R,ugm-3,11,R,ugm-3,11,R,ugm-3
07-01-2005,05:00,10,R,ugm-3 (GRAV EQ),1,R,ugm-3,15,R,ugm-3,17,R,ugm-3
07-01-2005,06:00,10,R,ugm-3 (GRAV EQ),3,R,ugm-3,19,R,ugm-3,23,R,ugm-3
07-01-2005,07:00,17,R,ugm-3 (GRAV EQ),10,R,ugm-3,38,R,ugm-3,53,R,ugm-3
07-01-2005,08:00,27,R,ugm-3 (GRAV EQ),21,R,ugm-3,53,R,ugm-3,86,R,ugm-3
07-01-2005,09:00,38,R,ugm-3 (GRAV EQ),36,R,ugm-3,67,R,ugm-3,122,R,ugm-3
07-01-2005,10:00,39,R,ugm-3 (GRAV EQ),29,R,ugm-3,59,R,ugm-3,103,R,ugm-3
07-01-2005,11:00,42,R,ugm-3 (GRAV EQ),24,R,ugm-3,50,R,ugm-3,86,R,ugm-3
07-01-2005,12:00,48,R,ugm-3 (GRAV EQ),21,R,ugm-3,50,R,ugm-3,82,R,ugm-3
07-01-2005,13:00,61,R,ugm-3 (GRAV EQ),16,R,ugm-3,40,R,ugm-3,65,R,ugm-3
07-01-2005,14:00,52,R,ugm-3 (GRAV EQ),23,R,ugm-3,46,R,ugm-3,80,R,ugm-3
07-01-2005,15:00,39,R,ugm-3 (GRAV EQ),19,R,ugm-3,48,R,ugm-3,76,R,ugm-3
07-01-2005,16:00,38,R,ugm-3 (GRAV EQ),21,R,ugm-3,50,R,ugm-3,82,R,ugm-3
07-01-2005,17:00,36,R,ugm-3 (GRAV EQ),21,R,ugm-3,50,R,ugm-3,82,R,ugm-3
07-01-2005,18:00,34,R,ugm-3 (GRAV EQ),18,R,ugm-3,50,R,ugm-3,76,R,ugm-3
07-01-2005,19:00,31,R,ugm-3 (GRAV EQ),25,R,ugm-3,50,R,ugm-3,88,R,ugm-3
07-01-2005,20:00,27,R,ugm-3 (GRAV EQ),14,R,ugm-3,40,R,ugm-3,61,R,ugm-3
07-01-2005,21:00,23,R,ugm-3 (GRAV EQ),9,R,ugm-3,32,R,ugm-3,46,R,ugm-3
07-01-2005,22:00,27,R,ugm-3 (GRAV EQ),8,R,ugm-3,31,R,ugm-3,42,R,ugm-3
07-01-2005,23:00,30,R,ugm-3 (GRAV EQ),8,R,ugm-3,21,R,ugm-3,32,R,ugm-3
07-01-2005,24:00,26,R,ugm-3 (GRAV EQ),4,R,ugm-3,19,R,ugm-3,25,R,ugm-3
08-01-2005,01:00,27,R,ugm-3 (GRAV EQ),1,R,ugm-3,13,R,ugm-3,15,R,ugm-3
08-01-2005,02:00,30,R,ugm-3 (GRAV EQ),1,R,ugm-3,11,R,ugm-3,13,R,ugm-3
08-01-2005,03:00,33,R,ugm-3 (GRAV EQ),0,R,ugm-3,10,R,ugm-3,10,R,ugm-3
08-01-2005,04:00,25,R,ugm-3 (GRAV EQ),0,R,ugm-3,8,R,ugm-3,8,R,ugm-3
08-01-2005,05:00,14,R,ugm-3 (GRAV EQ),0,R,ugm-3,8,R,ugm-3,8,R,ugm-3
08-01-2005,06:00,10,R,ugm-3 (GRAV EQ),0,R,ugm-3,10,R,ugm-3,10,R,ugm-3
08-01-2005,07:00,16,R,ugm-3 (GRAV EQ),0,R,ugm-3,13,R,ugm-3,13,R,ugm-3
08-01-2005,08:00,20,R,ugm-3 (GRAV EQ),1,R,ugm-3,17,R,ugm-3,19,R,ugm-3
08-01-2005,09:00,22,R,ugm-3 (GRAV EQ),5,R,ugm-3,27,R,ugm-3,34,R,ugm-3
08-01-2005,10:00,20,R,ugm-3 (GRAV EQ),6,R,ugm-3,29,R,ugm-3,38,R,ugm-3
08-01-2005,11:00,21,R,ugm-3 (GRAV EQ),10,R,ugm-3,29,R,ugm-3,44,R,ugm-3
08-01-2005,12:00,29,R,ugm-3 (GRAV EQ),6,R,ugm-3,27,R,ugm-3,36,R,ugm-3
08-01-2005,13:00,83,R,ugm-3 (GRAV EQ),5,R,ugm-3,25,R,ugm-3,32,R,ugm-3
08-01-2005,14:00,27,R,ugm-3 (GRAV EQ),6,R,ugm-3,27,R,ugm-3,36,R,ugm-3
08-01-2005,15:00,36,R,ugm-3 (GRAV EQ),10,R,ugm-3,31,R,ugm-3,46,R,ugm-3
08-01-2005,16:00,30,R,ugm-3 (GRAV EQ),10,R,ugm-3,42,R,ugm-3,57,R,ugm-3
08-01-2005,17:00,33,R,ugm-3 (GRAV EQ),18,R,ugm-3,61,R,ugm-3,88,R,ugm-3
08-01-2005,18:00,33,R,ugm-3 (GRAV EQ),20,R,ugm-3,65,R,ugm-3,96,R,ugm-3
08-01-2005,19:00,36,R,ugm-3 (GRAV EQ),45,R,ugm-3,80,R,ugm-3,149,R,ugm-3
08-01-2005,20:00,40,R,ugm-3 (GRAV EQ),40,R,ugm-3,76,R,ugm-3,138,R,ugm-3
08-01-2005,21:00,33,R,ugm-3 (GRAV EQ),25,R,ugm-3,65,R,ugm-3,103,R,ugm-3
08-01-2005,22:00,26,R,ugm-3 (GRAV EQ),11,R,ugm-3,52,R,ugm-3,69,R,ugm-3
08-01-2005,23:00,22,R,ugm-3 (GRAV EQ),8,R,ugm-3,42,R,ugm-3,53,R,ugm-3
08-01-2005,24:00,23,R,ugm-3 (GRAV EQ),13,R,ugm-3,48,R,ugm-3,67,R,ugm-3
09-01-2005,01:00,25,R,ugm-3 (GRAV EQ),5,R,ugm-3,34,R,ugm-3,42,R,ugm-3
09-01-2005,02:00,23,R,ugm-3 (GRAV EQ),4,R,ugm-3,32,R,ugm-3,38,R,ugm-3
09-01-2005,03:00,20,R,ugm-3 (GRAV EQ),4,R,ugm-3,32,R,ugm-3,38,R,ugm-3
09-01-2005,04:00,16,R,ugm-3 (GRAV EQ),1,R,ugm-3,27,R,ugm-3,29,R,ugm-3
09-01-2005,05:00,13,R,ugm-3 (GRAV EQ),1,R,ugm-3,21,R,ugm-3,23,R,ugm-3
09-01-2005,06:00,18,R,ugm-3 (GRAV EQ),3,R,ugm-3,32,R,ugm-3,36,R,ugm-3
09-01-2005,07:00,22,R,ugm-3 (GRAV EQ),4,R,ugm-3,40,R,ugm-3,46,R,ugm-3
09-01-2005,08:00,27,R,ugm-3 (GRAV EQ),21,R,ugm-3,69,R,ugm-3,101,R,ugm-3
09-01-2005,09:00,29,R,ugm-3 (GRAV EQ),20,R,ugm-3,61,R,ugm-3,92,R,ugm-3
09-01-2005,10:00,34,R,ugm-3 (GRAV EQ),28,R,ugm-3,65,R,ugm-3,107,R,ugm-3
09-01-2005,11:00,36,R,ugm-3 (GRAV EQ),34,R,ugm-3,61,R,ugm-3,113,R,ugm-3
09-01-2005,12:00,34,R,ugm-3 (GRAV EQ),24,R,ugm-3,48,R,ugm-3,84,R,ugm-3
09-01-2005,13:00,34,R,ugm-3 (GRAV EQ),21,R,ugm-3,46,R,ugm-3,78,R,ugm-3
09-01-2005,14:00,31,R,ugm-3 (GRAV EQ),21,R,ugm-3,48,R,ugm-3,80,R,ugm-3
09-01-2005,15:00,33,R,ugm-3 (GRAV EQ),23,R,ugm-3,52,R,ugm-3,86,R,ugm-3
09-01-2005,16:00,34,R,ugm-3 (GRAV EQ),23,R,ugm-3,53,R,ugm-3,88,R,ugm-3
09-01-2005,17:00,29,R,ugm-3 (GRAV EQ),30,R,ugm-3,59,R,ugm-3,105,R,ugm-3
09-01-2005,18:00,16,R,ugm-3 (GRAV EQ),28,R,ugm-3,53,R,ugm-3,96,R,ugm-3
09-01-2005,19:00,14,R,ugm-3 (GRAV EQ),20,R,ugm-3,46,R,ugm-3,76,R,ugm-3
09-01-2005,20:00,16,R,ugm-3 (GRAV EQ),21,R,ugm-3,48,R,ugm-3,80,R,ugm-3
09-01-2005,21:00,22,R,ugm-3 (GRAV EQ),16,R,ugm-3,42,R,ugm-3,67,R,ugm-3
09-01-2005,22:00,31,R,ugm-3 (GRAV EQ),11,R,ugm-3,34,R,ugm-3,52,R,ugm-3
09-01-2005,23:00,33,R,ugm-3 (GRAV EQ),9,R,ugm-3,32,R,ugm-3,46,R,ugm-3
09-01-2005,24:00,27,R,ugm-3 (GRAV EQ),6,R,ugm-3,27,R,ugm-3,36,R,ugm-3
10-01-2005,01:00,21,R,ugm-3 (GRAV EQ),3,R,ugm-3,13,R,ugm-3,17,R,ugm-3
10-01-2005,02:00,18,R,ugm-3 (GRAV EQ),0,R,ugm-3,8,R,ugm-3,8,R,ugm-3
10-01-2005,03:00,20,R,ugm-3 (GRAV EQ),0,R,ugm-3,6,R,ugm-3,6,R,ugm-3
10-01-2005,04:00,21,R,ugm-3 (GRAV EQ),0,R,ugm-3,8,R,ugm-3,8,R,ugm-3
10-01-2005,05:00,18,R,ugm-3 (GRAV EQ),1,R,ugm-3,10,R,ugm-3,11,R,ugm-3
10-01-2005,06:00,21,R,ugm-3 (GRAV EQ),1,R,ugm-3,17,R,ugm-3,19,R,ugm-3
10-01-2005,07:00,29,R,ugm-3 (GRAV EQ),9,R,ugm-3,32,R,ugm-3,46,R,ugm-3
10-01-2005,08:00,35,R,ugm-3 (GRAV EQ),23,R,ugm-3,52,R,ugm-3,86,R,ugm-3
10-01-2005,09:00,38,R,ugm-3 (GRAV EQ),33,R,ugm-3,65,R,ugm-3,115,R,ugm-3
10-01-2005,10:00,36,R,ugm-3 (GRAV EQ),30,R,ugm-3,65,R,ugm-3,111,R,ugm-3
10-01-2005,11:00,31,R,ugm-3 (GRAV EQ),31,R,ugm-3,61,R,ugm-3,109,R,ugm-3
10-01-2005,12:00,30,R,ugm-3 (GRAV EQ),48,R,ugm-3,71,R,ugm-3,143,R,ugm-3
10-01-2005,13:00,30,R,ugm-3 (GRAV EQ),43,R,ugm-3,74,R,ugm-3,139,R,ugm-3
10-01-2005,14:00,29,R,ugm-3 (GRAV EQ),49,R,ugm-3,76,R,ugm-3,151,R,ugm-3
10-01-2005,15:00,17,R,ugm-3 (GRAV EQ),21,R,ugm-3,78,R,ugm-3,111,R,ugm-3
10-01-2005,16:00,23,R,ugm-3 (GRAV EQ),68,R,ugm-3,111,R,ugm-3,214,R,ugm-3
10-01-2005,17:00,30,R,ugm-3 (GRAV EQ),109,R,ugm-3,130,R,ugm-3,296,R,ugm-3
10-01-2005,18:00,31,R,ugm-3 (GRAV EQ),94,R,ugm-3,118,R,ugm-3,262,R,ugm-3
10-01-2005,19:00,31,R,ugm-3 (GRAV EQ),84,R,ugm-3,109,R,ugm-3,237,R,ugm-3
10-01-2005,20:00,30,R,ugm-3 (GRAV EQ),55,R,ugm-3,101,R,ugm-3,185,R,ugm-3
10-01-2005,21:00,34,R,ugm-3 (GRAV EQ),64,R,ugm-3,94,R,ugm-3,191,R,ugm-3
10-01-2005,22:00,29,R,ugm-3 (GRAV EQ),34,R,ugm-3,76,R,ugm-3,128,R,ugm-3
10-01-2005,23:00,30,R,ugm-3 (GRAV EQ),26,R,ugm-3,73,R,ugm-3,113,R,ugm-3
10-01-2005,24:00,26,R,ugm-3 (GRAV EQ),18,R,ugm-3,65,R,ugm-3,92,R,ugm-3
11-01-2005,01:00,26,R,ugm-3 (GRAV EQ),6,R,ugm-3,57,R,ugm-3,67,R,ugm-3
11-01-2005,02:00,25,R,ugm-3 (GRAV EQ),6,R,ugm-3,42,R,ugm-3,52,R,ugm-3
11-01-2005,03:00,25,R,ugm-3 (GRAV EQ),4,R,ugm-3,36,R,ugm-3,42,R,ugm-3
11-01-2005,04:00,25,R,ugm-3 (GRAV EQ),1,R,ugm-3,23,R,ugm-3,25,R,ugm-3
11-01-2005,05:00,27,R,ugm-3 (GRAV EQ),5,R,ugm-3,36,R,ugm-3,44,R,ugm-3
11-01-2005,06:00,27,R,ugm-3 (GRAV EQ),16,R,ugm-3,55,R,ugm-3,80,R,ugm-3
11-01-2005,07:00,29,R,ugm-3 (GRAV EQ),30,R,ugm-3,74,R,ugm-3,120,R,ugm-3
11-01-2005,08:00,35,R,ugm-3 (GRAV EQ),50,R,ugm-3,84,R,ugm-3,160,R,ugm-3
11-01-2005,09:00,36,R,ugm-3 (GRAV EQ),73,R,ugm-3,96,R,ugm-3,206,R,ugm-3
11-01-2005,10:00,36,R,ugm-3 (GRAV EQ),49,R,ugm-3,80,R,ugm-3,155,R,ugm-3
11-01-2005,11:00,38,R,ugm-3 (GRAV EQ),50,R,ugm-3,76,R,ugm-3,153,R,ugm-3
11-01-2005,12:00,39,R,ugm-3 (GRAV EQ),45,R,ugm-3,65,R,ugm-3,134,R,ugm-3
11-01-2005,13:00,29,R,ugm-3 (GRAV EQ),31,R,ugm-3,55,R,ugm-3,103,R,ugm-3
11-01-2005,14:00,17,R,ugm-3 (GRAV EQ),23,R,ugm-3,52,R,ugm-3,86,R,ugm-3
11-01-2005,15:00,16,R,ugm-3 (GRAV EQ),24,R,ugm-3,52,R,ugm-3,88,R,ugm-3
11-01-2005,16:00,22,R,ugm-3 (GRAV EQ),33,R,ugm-3,61,R,ugm-3,111,R,ugm-3
11-01-2005,17:00,20,R,ugm-3 (GRAV EQ),35,R,ugm-3,61,R,ugm-3,115,R,ugm-3
11-01-2005,18:00,22,R,ugm-3 (GRAV EQ),25,R,ugm-3,57,R,ugm-3,96,R,ugm-3
11-01-2005,19:00,23,R,ugm-3 (GRAV EQ),10,R,ugm-3,55,R,ugm-3,71,R,ugm-3
11-01-2005,20:00,25,R,ugm-3 (GRAV EQ),4,R,ugm-3,44,R,ugm-3,50,R,ugm-3
11-01-2005,21:00,38,R,ugm-3 (GRAV EQ),4,R,ugm-3,40,R,ugm-3,46,R,ugm-3
11-01-2005,22:00,38,R,ugm-3 (GRAV EQ),5,R,ugm-3,40,R,ugm-3,48,R,ugm-3
11-01-2005,23:00,33,R,ugm-3 (GRAV EQ),5,R,ugm-3,38,R,ugm-3,46,R,ugm-3
11-01-2005,24:00,36,R,ugm-3 (GRAV EQ),3,R,ugm-3,29,R,ugm-3,32,R,ugm-3
12-01-2005,01:00,40,R,ugm-3 (GRAV EQ),4,R,ugm-3,29,R,ugm-3,34,R,ugm-3
12-01-2005,02:00,34,R,ugm-3 (GRAV EQ),0,R,ugm-3,11,R,ugm-3,11,R,ugm-3
12-01-2005,03:00,33,R,ugm-3 (GRAV EQ),0,R,ugm-3,13,R,ugm-3,13,R,ugm-3
12-01-2005,04:00,29,R,ugm-3 (GRAV EQ),0,R,ugm-3,11,R,ugm-3,11,R,ugm-3
12-01-2005,05:00,27,R,ugm-3 (GRAV EQ),0,R,ugm-3,13,R,ugm-3,13,R,ugm-3
12-01-2005,06:00,27,R,ugm-3 (GRAV EQ),3,R,ugm-3,31,R,ugm-3,34,R,ugm-3
12-01-2005,07:00,34,R,ugm-3 (GRAV EQ),25,R,ugm-3,67,R,ugm-3,105,R,ugm-3
12-01-2005,08:00,36,R,ugm-3 (GRAV EQ),41,R,ugm-3,78,R,ugm-3,141,R,ugm-3
12-01-2005,09:00,35,R,ugm-3 (GRAV EQ),49,R,ugm-3,80,R,ugm-3,155,R,ugm-3
12-01-2005,10:00,31,R,ugm-3 (GRAV EQ),40,R,ugm-3,74,R,ugm-3,136,R,ugm-3
12-01-2005,11:00,33,R,ugm-3 (GRAV EQ),36,R,ugm-3,61,R,ugm-3,117,R,ugm-3
12-01-2005,12:00,39,R,ugm-3 (GRAV EQ),16,R,ugm-3,44,R,ugm-3,69,R,ugm-3
12-01-2005,13:00,,,,,,,,,,,,
12-01-2005,14:00,,,,,,,,,,,,
12-01-2005,15:00,31,R,ugm-3 (GRAV EQ),,,,,,,,,
12-01-2005,16:00,36,R,ugm-3 (GRAV EQ),16,R,ugm-3,57,R,ugm-3,82,R,ugm-3
12-01-2005,17:00,30,R,ugm-3 (GRAV EQ),20,R,ugm-3,67,R,ugm-3,97,R,ugm-3
12-01-2005,18:00,29,R,ugm-3 (GRAV EQ),24,R,ugm-3,69,R,ugm-3,105,R,ugm-3
12-01-2005,19:00,34,R,ugm-3 (GRAV EQ),20,R,ugm-3,74,R,ugm-3,105,R,ugm-3
12-01-2005,20:00,35,R,ugm-3 (GRAV EQ),20,R,ugm-3,82,R,ugm-3,113,R,ugm-3
12-01-2005,21:00,34,R,ugm-3 (GRAV EQ),14,R,ugm-3,71,R,ugm-3,92,R,ugm-3
12-01-2005,22:00,33,R,ugm-3 (GRAV EQ),9,R,ugm-3,63,R,ugm-3,76,R,ugm-3
12-01-2005,23:00,30,R,ugm-3 (GRAV EQ),8,R,ugm-3,55,R,ugm-3,67,R,ugm-3
12-01-2005,24:00,30,R,ugm-3 (GRAV EQ),5,R,ugm-3,53,R,ugm-3,61,R,ugm-3
13-01-2005,01:00,27,R,ugm-3 (GRAV EQ),1,R,ugm-3,40,R,ugm-3,42,R,ugm-3
13-01-2005,02:00,25,R,ugm-3 (GRAV EQ),0,R,ugm-3,23,R,ugm-3,23,R,ugm-3
13-01-2005,03:00,26,R,ugm-3 (GRAV EQ),0,R,ugm-3,15,R,ugm-3,15,R,ugm-3
13-01-2005,04:00,23,R,ugm-3 (GRAV EQ),0,R,ugm-3,11,R,ugm-3,11,R,ugm-3
13-01-2005,05:00,23,R,ugm-3 (GRAV EQ),0,R,ugm-3,21,R,ugm-3,21,R,ugm-3
13-01-2005,06:00,25,R,ugm-3 (GRAV EQ),3,R,ugm-3,44,R,ugm-3,48,R,ugm-3
13-01-2005,07:00,27,R,ugm-3 (GRAV EQ),30,R,ugm-3,73,R,ugm-3,118,R,ugm-3
13-01-2005,08:00,31,R,ugm-3 (GRAV EQ),64,R,ugm-3,84,R,ugm-3,181,R,ugm-3
13-01-2005,09:00,39,R,ugm-3 (GRAV EQ),86,R,ugm-3,88,R,ugm-3,220,R,ugm-3
13-01-2005,10:00,53,R,ugm-3 (GRAV EQ),129,R,ugm-3,96,R,ugm-3,292,R,ugm-3
13-01-2005,11:00,53,R,ugm-3 (GRAV EQ),89,R,ugm-3,86,R,ugm-3,222,R,ugm-3
13-01-2005,12:00,46,R,ugm-3 (GRAV EQ),46,R,ugm-3,69,R,ugm-3,139,R,ugm-3
13-01-2005,13:00,42,R,ugm-3 (GRAV EQ),38,R,ugm-3,69,R,ugm-3,126,R,ugm-3
13-01-2005,14:00,42,R,ugm-3 (GRAV EQ),35,R,ugm-3,65,R,ugm-3,118,R,ugm-3
13-01-2005,15:00,47,R,ugm-3 (GRAV EQ),43,R,ugm-3,73,R,ugm-3,138,R,ugm-3
13-01-2005,16:00,46,R,ugm-3 (GRAV EQ),45,R,ugm-3,84,R,ugm-3,153,R,ugm-3
13-01-2005,17:00,59,R,ugm-3 (GRAV EQ),175,R,ugm-3,136,R,ugm-3,403,R,ugm-3
13-01-2005,18:00,82,R,ugm-3 (GRAV EQ),279,R,ugm-3,149,R,ugm-3,575,R,ugm-3
13-01-2005,19:00,91,R,ugm-3 (GRAV EQ),330,R,ugm-3,155,R,ugm-3,659,R,ugm-3
13-01-2005,20:00,88,R,ugm-3 (GRAV EQ),361,R,ugm-3,170,R,ugm-3,722,R,ugm-3
13-01-2005,21:00,98,R,ugm-3 (GRAV EQ),401,R,ugm-3,174,R,ugm-3,787,R,ugm-3
13-01-2005,22:00,72,R,ugm-3 (GRAV EQ),258,R,ugm-3,147,R,ugm-3,541,R,ugm-3
13-01-2005,23:00,64,R,ugm-3 (GRAV EQ),239,R,ugm-3,134,R,ugm-3,499,R,ugm-3
13-01-2005,24:00,56,R,ugm-3 (GRAV EQ),234,R,ugm-3,122,R,ugm-3,479,R,ugm-3
14-01-2005,01:00,56,R,ugm-3 (GRAV EQ),248,R,ugm-3,117,R,ugm-3,495,R,ugm-3
14-01-2005,02:00,52,R,ugm-3 (GRAV EQ),208,R,ugm-3,111,R,ugm-3,428,R,ugm-3
14-01-2005,03:00,40,R,ugm-3 (GRAV EQ),124,R,ugm-3,94,R,ugm-3,283,R,ugm-3
14-01-2005,04:00,49,R,ugm-3 (GRAV EQ),298,R,ugm-3,128,R,ugm-3,583,R,ugm-3
14-01-2005,05:00,65,R,ugm-3 (GRAV EQ),326,R,ugm-3,128,R,ugm-3,626,R,ugm-3
14-01-2005,06:00,56,R,ugm-3 (GRAV EQ),311,R,ugm-3,128,R,ugm-3,604,R,ugm-3
14-01-2005,07:00,56,R,ugm-3 (GRAV EQ),366,R,ugm-3,138,R,ugm-3,697,R,ugm-3
14-01-2005,08:00,61,R,ugm-3 (GRAV EQ),411,R,ugm-3,155,R,ugm-3,783,R,ugm-3
14-01-2005,09:00,82,R,ugm-3 (GRAV EQ),481,R,ugm-3,193,R,ugm-3,928,R,ugm-3
14-01-2005,10:00,68,R,ugm-3 (GRAV EQ),214,R,ugm-3,139,R,ugm-3,466,R,ugm-3
14-01-2005,11:00,73,R,ugm-3 (GRAV EQ),183,R,ugm-3,122,R,ugm-3,401,R,ugm-3
14-01-2005,12:00,66,R,ugm-3 (GRAV EQ),134,R,ugm-3,109,R,ugm-3,313,R,ugm-3
14-01-2005,13:00,52,R,ugm-3 (GRAV EQ),91,R,ugm-3,90,R,ugm-3,229,R,ugm-3
14-01-2005,14:00,39,R,ugm-3 (GRAV EQ),94,R,ugm-3,94,R,ugm-3,237,R,ugm-3
14-01-2005,15:00,40,R,ugm-3 (GRAV EQ),104,R,ugm-3,96,R,ugm-3,254,R,ugm-3
14-01-2005,16:00,42,R,ugm-3 (GRAV EQ),119,R,ugm-3,113,R,ugm-3,294,R,ugm-3
14-01-2005,17:00,48,R,ugm-3 (GRAV EQ),154,R,ugm-3,126,R,ugm-3,361,R,ugm-3
14-01-2005,18:00,49,R,ugm-3 (GRAV EQ),124,R,ugm-3,109,R,ugm-3,298,R,ugm-3
14-01-2005,19:00,49,R,ugm-3 (GRAV EQ),143,R,ugm-3,111,R,ugm-3,329,R,ugm-3
14-01-2005,20:00,52,R,ugm-3 (GRAV EQ),153,R,ugm-3,107,R,ugm-3,340,R,ugm-3
14-01-2005,21:00,43,R,ugm-3 (GRAV EQ),86,R,ugm-3,86,R,ugm-3,218,R,ugm-3
14-01-2005,22:00,35,R,ugm-3 (GRAV EQ),71,R,ugm-3,84,R,ugm-3,193,R,ugm-3
14-01-2005,23:00,40,R,ugm-3 (GRAV EQ),73,R,ugm-3,76,R,ugm-3,187,R,ugm-3